Regional Weather Roundup
Issued by NWS

Home | Current Version | Previous Version | Graphics & Text | Print | Product List | Glossary On
Versions: 1 2 3 4 5 6 7 8 9 10 11 12 13 14 15 16 17 18 19 20 21 22 23 24 25 26 27 28 29 30 31 32 33 34 35 36 37 38 39 40 41 42 43 44 45 46 47 48 49 50
000
ASUS43 KFSD 271002
RWRSD

WEATHER ROUNDUP FOR SOUTH DAKOTA
NATIONAL WEATHER SERVICE SIOUX FALLS SD
400 AM CST SAT DEC 27 2014

NOTE: "FAIR" INDICATES FEW OR NO CLOUDS BELOW 12,000 FEET WITH NO
SIGNIFICANT WEATHER AND/OR OBSTRUCTIONS TO VISIBILITY.


SDZ001>005-009-010-012>017-271100-
NORTHWEST AND NORTH CENTRAL SOUTH DAKOTA

CITY           SKY/WX    TMP DP  RH WIND       PRES   REMARKS
BUFFALO          N/A     20  16  84 W7        30.01F WCI  11
FAITH            N/A     16  10  77 W8        30.11F WCI   5
MOBRIDGE       CLOUDY     2  -1  88 CALM      30.13F
$$

SDZ012>016-024>037-041>051-057-063-072>074-271100-
SOUTHWEST AND SOUTH CENTRAL SOUTH DAKOTA

CITY           SKY/WX    TMP DP  RH WIND       PRES   REMARKS
RAPID CTY ARPT CLOUDY    11   7  84 W5        30.12S WCI   3
PIERRE         MOCLDY     7   5  91 SW6       30.17S WCI  -3
CUSTER         CLOUDY    12   2  64 W3        29.98S
ELLSWORTH AFB  CLOUDY    11   6  80 W6        30.10F WCI   1
PHILIP         PTCLDY     9   5  84 W9        30.17S WCI  -4
PINE RIDGE     MOCLDY    12   8  84 SW6       30.13S WCI   3
WINNER         CLOUDY    15  11  83 W8        30.16F WCI   4
$$

SDZ004>011-016>023-039-040-271100-
NORTHEAST SOUTH DAKOTA

CITY           SKY/WX    TMP DP  RH WIND       PRES   REMARKS
ABERDEEN       PTCLDY     8   3  80 CALM      30.20S
WATERTOWN      CLOUDY    13   9  84 NW14      30.12S WCI  -2
SISSETON         N/A      8   4  83 NW12      30.17S WCI  -7
$$

SDZ017-020-022-023-036>040-048>070-271100-
SOUTHEAST SOUTH DAKOTA

CITY           SKY/WX    TMP DP  RH WIND       PRES   REMARKS
SIOUX FALLS    LGT SNOW  20  17  88 NW10      30.12R FOG     WCI   9
HURON          CLOUDY    10   7  87 NW10      30.19S WCI  -4
MITCHELL       CLOUDY    15  12  88 NW13      30.19S FOG     WCI   1
YANKTON        MOCLDY    18  14  86 NW15      30.17S WCI   3
$$

ABBREVIATIONS USED IN REMARKS
   TC - TEMPERATURE IN CELSIUS
  WCI - WIND CHILL INDEX
   HX - HEAT INDEX
  VSB - VISIBILITY




USA.gov is the U.S. government's official web portal to all federal, state and local government web resources and services.